Retour au catalogue

QIANFAN-80

ActifCommunicationsPO
NORAD 63166·PAYLOAD·🇨🇳 China

Lancé Mar 11, 2025 depuis Wenchang Space Launch Site

Loading…

Prochains Passages (prochaines 24 heures)

TLE

FraisSource: Space-Track

Époque: Sep 14, 2026, 21:55 UTC

1 63166U 25046H   26257.91365938  .00000058  00000-0  70470-4 0  9990
2 63166  88.9652 291.1351 0015303  59.9388 300.3278 13.51029461 84825

Suivez QIANFAN-80 en temps réel avec AllMySat

Download on the App Store